H1 CPF 2 NER 2022 7 11 9 192 01 glonass140 H2 1903001 9140 44299 2022 7 11 0 0 0 2022 7 14 23 45 0 900 1 1 0 0 0 1 H9 10 0 59771 0.00000 0 -11927430.661 -2786608.875 -22345934.788 10 0 59771 900.00000 0 -10094065.351 -4899580.837 -22877717.760 10 0 59771 1800.00000 0 -8395330.197 -7170198.792 -22963813.902 10 0 59771 2700.00000 0 -6874135.267 -9543405.842 -22602490.279 10 0 59771 3600.00000 0 -5563039.820 -11957623.018 -21800754.041 10 0 59771 4500.00000 0 -4483051.465 -14347132.325 -20574217.738 10 0 59771 5400.00000 0 -3642927.520 -16644648.400 -18946794.021 10 0 59771 6300.00000 0 -3039007.242 -18783970.998 -16950225.587 10 0 59771 7200.00000 0 -2655580.981 -20702606.819 -14623459.729 10 0 59771 8100.00000 0 -2465779.264 -22344250.447 -12011880.045 10 0 59771 9000.00000 0 -2432942.629 -23661020.045 -9166410.880 10 0 59771 9900.00000 0 -2512412.481 -24615353.791 -6142512.898 10 0 59771 10800.00000 0 -2653665.265 -25181487.647 -2999090.387 10 0 59771 11700.00000 0 -2802697.701 -25346452.936 202667.240 10 0 59771 12600.00000 0 -2904560.381 -25110552.755 3400485.914 10 0 59771 13500.00000 0 -2905930.943 -24487298.534 6532224.881 10 0 59771 14400.00000 0 -2757616.822 -23502811.008 9537087.683 10 0 59771 15300.00000 0 -2416881.040 -22194712.466 12356801.927 10 0 59771 16200.00000 0 -1849492.489 -20610558.432 14936744.922 10 0 59771 17100.00000 0 -1031414.278 -18805875.906 17226993.697 10 0 59771 18000.00000 0 49940.633 -16841891.322 19183279.778 10 0 59771 18900.00000 0 1394938.863 -14783043.702 20767831.499 10 0 59771 19800.00000 0 2991473.117 -12694386.658 21950089.027 10 0 59771 20700.00000 0 4815236.171 -10638986.915 22707279.836 10 0 59771 21600.00000 0 6830511.100 -8675426.423 23024845.146 10 0 59771 22500.00000 0 8991445.394 -6855510.332 22896710.462 10 0 59771 23400.00000 0 11243756.850 -5222274.324 22325396.034 10 0 59771 24300.00000 0 13526801.699 -3808372.186 21321965.751 10 0 59771 25200.00000 0 15775920.669 -2634908.873 19905815.555 10 0 59771 26100.00000 0 17924967.240 -1710766.135 18104305.111 10 0 59771 27000.00000 0 19908914.801 -1032447.614 15952239.032 10 0 59771 27900.00000 0 21666435.913 -584449.142 13491206.491 10 0 59771 28800.00000 0 23142347.497 -340138.483 10768790.640 10 0 59771 29700.00000 0 24289820.909 -263107.674 7837661.687 10 0 59771 30600.00000 0 25072264.993 -308941.507 4754569.720 10 0 59771 31500.00000 0 25464803.190 -427328.211 1579255.723 10 0 59771 32400.00000 0 25455282.273 -564423.739 -1626699.070 10 0 59771 33300.00000 0 25044769.402 -665370.091 -4801063.732 10 0 59771 34200.00000 0 24247515.371 -676861.181 -7882165.087 10 0 59771 35100.00000 0 23090384.216 -549647.237 -10810088.505 10 0 59771 36000.00000 0 21611771.735 -240870.872 -13527848.266 10 0 59771 36900.00000 0 19860057.168 283865.329 -15982504.034 10 0 59771 37800.00000 0 17891652.035 1048788.835 -18126200.955 10 0 59771 38700.00000 0 15768727.348 2066679.097 -19917112.340 10 0 59771 39600.00000 0 13556714.190 3338077.458 -21320265.648 10 0 59771 40500.00000 0 11321682.375 4851020.570 -22308234.942 10 0 59771 41400.00000 0 9127707.092 6581310.714 -22861685.611 10 0 59771 42300.00000 0 7034334.205 8493313.468 -22969760.049 10 0 59771 43200.00000 0 5094250.556 10541250.859 -22630296.263 10 0 59771 44100.00000 0 3351257.045 12670936.883 -21849874.681 10 0 59771 45000.00000 0 1838629.429 14821883.310 -20643691.865 10 0 59771 45900.00000 0 577935.264 16929687.810 -19035263.424 10 0 59771 46800.00000 0 -421644.030 18928604.224 -17055961.781 10 0 59771 47700.00000 0 -1163458.466 20754186.762 -14744398.026 10 0 59771 48600.00000 0 -1662997.447 22345896.708 -12145660.240 10 0 59771 49500.00000 0 -1946978.641 23649561.651 -9310423.734 10 0 59771 50400.00000 0 -2051958.143 24619583.425 -6293951.464 10 0 59771 51300.00000 0 -2022522.804 25220801.821 -3155005.155 10 0 59771 52200.00000 0 -1909143.288 25429935.806 45310.533 10 0 59771 53100.00000 0 -1765780.701 25236542.144 3244746.944 10 0 59771 54000.00000 0 -1647349.903 24643452.036 6381129.118 10 0 59771 54900.00000 0 -1607148.241 23666668.609 9393567.632 10 0 59771 55800.00000 0 -1694359.438 22334730.994 12223640.429 10 0 59771 56700.00000 0 -1951738.649 20687573.134 14816521.596 10 0 59771 57600.00000 0 -2413576.477 18774926.452 17122035.527 10 0 59771 58500.00000 0 -3104027.505 16654334.271 19095616.766 10 0 59771 59400.00000 0 -4035873.179 14388861.531 20699158.174 10 0 59771 60300.00000 0 -5209770.508 12044595.315 21901732.459 10 0 59771 61200.00000 0 -6614017.642 9688039.839 22680174.706 10 0 59771 62100.00000 0 -8224845.970 7383513.140 23019516.253 10 0 59771 63000.00000 0 -10007226.837 5190652.069 22913262.948 10 0 59771 63900.00000 0 -11916159.774 3162127.424 22363513.471 10 0 59771 64800.00000 0 -13898389.689 1341662.032 21380916.107 10 0 59771 65700.00000 0 -15894482.935 -237567.913 19984464.939 10 0 59771 66600.00000 0 -17841177.419 -1554083.545 18201139.085 10 0 59771 67500.00000 0 -19673910.656 -2598759.688 16065391.133 10 0 59771 68400.00000 0 -21329422.105 -3374960.626 13618493.499 10 0 59771 69300.00000 0 -22748322.601 -3898150.183 10907754.019 10 0 59771 70200.00000 0 -23877524.659 -4194992.733 7985614.450 10 0 59771 71100.00000 0 -24672432.570 -4301982.719 4908647.910 10 0 59771 72000.00000 0 -25098800.573 -4263659.966 1736473.542 10 0 59771 72900.00000 0 -25134180.707 -4130485.566 -1469391.524 10 0 59771 73800.00000 0 -24768898.589 -3956467.653 -4646721.234 10 0 59771 74700.00000 0 -24006514.778 -3796637.209 -7733787.736 10 0 59771 75600.00000 0 -22863750.750 -3704480.889 -10670563.045 10 0 59771 76500.00000 0 -21369880.930 -3729440.043 -13399891.462 10 0 59771 77400.00000 0 -19565614.745 -3914582.748 -15868609.246 10 0 59771 78300.00000 0 -17501514.220 -4294548.688 -18028588.997 10 0 59771 79200.00000 0 -15236012.401 -4893855.488 -19837687.611 10 0 59771 80100.00000 0 -12833114.915 -5725639.896 -21260578.441 10 0 59771 81000.00000 0 -10359880.510 -6790888.976 -22269450.700 10 0 59771 81900.00000 0 -7883785.794 -8078195.707 -22844561.758 10 0 59771 82800.00000 0 -5470084.580 -9564051.077 -22974630.895 10 0 59771 83700.00000 0 -3179272.341 -11213661.992 -22657066.281 10 0 59771 84600.00000 0 -1064761.967 -12982261.849 -21898020.312 10 0 59771 85500.00000 0 829131.865 -14816859.488 -20712271.824 10 0 59772 0.00000 0 2468815.423 -16658353.329 -19122937.442 10 0 59772 900.00000 0 3832579.145 -18443922.885 -17161016.666 10 0 59772 1800.00000 0 4911251.201 -20109594.324 -14864781.952 10 0 59772 2700.00000 0 5708318.225 -21592875.003 -12279023.189 10 0 59772 3600.00000 0 6239507.471 -22835343.043 -9454163.920 10 0 59772 4500.00000 0 6531850.896 -23785083.258 -6445266.681 10 0 59772 5400.00000 0 6622272.667 -24398866.301 -3310947.970 10 0 59772 6300.00000 0 6555762.060 -24643979.015 -112225.154 10 0 59772 7200.00000 0 6383211.167 -24499629.011 3088680.947 10 0 59772 8100.00000 0 6159010.940 -23957864.859 6229563.409 10 0 59772 9000.00000 0 5938508.945 -23023973.967 9249441.927 10 0 59772 9900.00000 0 5775437.586 -21716342.509 12089746.671 10 0 59772 10800.00000 0 5719422.279 -20065784.479 14695450.205 10 0 59772 11700.00000 0 5813675.028 -18114369.147 17016125.796 10 0 59772 12600.00000 0 6092970.497 -15913796.952 19006912.317 10 0 59772 13500.00000 0 6581989.273 -13523392.307 20629368.256 10 0 59772 14400.00000 0 7294097.314 -11007797.077 21852199.764 10 0 59772 15300.00000 0 8230612.076 -8434460.437 22651850.235 10 0 59772 16200.00000 0 9380585.593 -5871028.465 23012941.639 10 0 59772 17100.00000 0 10721113.381 -3382740.389 22928560.513 10 0 59772 18000.00000 0 12218156.450 -1029937.805 22400384.157 10 0 59772 18900.00000 0 13827842.766 1134211.895 21438645.297 10 0 59772 19800.00000 0 15498194.958 3065685.548 20061936.069 10 0 59772 20700.00000 0 17171213.560 4731187.789 18296854.788 10 0 59772 21600.00000 0 18785230.477 6109284.128 16177501.590 10 0 59772 22500.00000 0 20277436.070 7191037.674 13744831.494 10 0 59772 23400.00000 0 21586475.703 7980123.850 11045876.101 10 0 59772 24300.00000 0 22655008.342 8492418.795 8132847.499 10 0 59772 25200.00000 0 23432120.783 8755078.803 5062140.268 10 0 59772 26100.00000 0 23875496.479 8805149.245 1893249.793 10 0 59772 27000.00000 0 23953247.582 8687761.142 -1312373.144 10 0 59772 27900.00000 0 23645332.357 8453991.066 -4492509.880 10 0 59772 28800.00000 0 22944497.018 8158474.395 -7585380.617 10 0 59772 29700.00000 0 21856700.746 7856872.787 -10530846.853 10 0 59772 30600.00000 0 20401004.090 7603303.264 -13271585.777 10 0 59772 31500.00000 0 18608923.607 7447838.295 -15754213.057 10 0 59772 32400.00000 0 16523278.024 7434183.644 -17930331.461 10 0 59772 33300.00000 0 14196572.763 7597633.513 -19757484.059 10 0 59772 34200.00000 0 11688989.388 7963390.962 -21199992.539 10 0 59772 35100.00000 0 9066063.244 8545326.242 -22229663.547 10 0 59772 36000.00000 0 6396145.919 9345227.189 -22826348.527 10 0 59772 36900.00000 0 3747758.423 10352574.918 -22978345.485 10 0 59772 37800.00000 0 1186945.643 11544855.734 -22682634.288 10 0 59772 38700.00000 0 -1225257.382 12888397.306 -21944940.449 10 0 59772 39600.00000 0 -3435141.347 14339694.694 -20779625.765 10 0 59772 40500.00000 0 -5398324.052 15847170.870 -19209407.751 10 0 59772 41400.00000 0 -7081353.884 17353297.701 -17264913.213 10 0 59772 42300.00000 0 -8462848.820 18796987.730 -14984074.859 10 0 59772 43200.00000 0 -9534124.291 20116155.505 -12411383.022 10 0 59772 44100.00000 0 -10299284.970 21250339.753 -9597007.673 10 0 59772 45000.00000 0 -10774778.396 22143275.073 -6595808.720 10 0 59772 45900.00000 0 -10988431.390 22745303.955 -3466254.909 10 0 59772 46800.00000 0 -10978012.177 23015526.927 -269273.513 10 0 59772 47700.00000 0 -10789381.268 22923599.850 2932945.472 10 0 59772 48600.00000 0 -10474311.458 22451102.756 6078166.286 10 0 59772 49500.00000 0 -10088071.036 21592422.959 9105320.938 10 0 59772 50400.00000 0 -9686873.874 20355116.037 11955695.054 10 0 59772 51300.00000 0 -9325305.183 18759730.410 14574062.862 10 0 59772 52200.00000 0 -9053832.078 16839103.809 16909749.625 10 0 59772 53100.00000 0 -8916503.897 14637161.954 18917601.540 10 0 59772 54000.00000 0 -8948938.638 12207270.212 20558845.557 10 0 59772 54900.00000 0 -9176679.428 9610207.108 21801823.902 10 0 59772 55800.00000 0 -9613989.098 6911843.810 22622590.653 10 0 59772 56700.00000 0 -10263132.533 4180625.174 23005360.477 10 0 59772 57600.00000 0 -11114176.231 1484955.559 22942802.289 10 0 59772 58500.00000 0 -12145313.113 -1109403.818 22436173.259 10 0 59772 59400.00000 0 -13323699.172 -3541820.128 21495291.305 10 0 59772 60300.00000 0 -14606767.602 -5759055.895 20138346.812 10 0 59772 61200.00000 0 -15943966.484 -7717225.621 18391556.915 10 0 59772 62100.00000 0 -17278848.748 -9383362.737 16288668.313 10 0 59772 63000.00000 0 -18551428.475 -10736533.251 13870317.057 10 0 59772 63900.00000 0 -19700706.379 -11768450.753 11183256.410 10 0 59772 64800.00000 0 -20667259.902 -12483567.825 8279466.189 10 0 59772 65700.00000 0 -21395790.225 -12898640.286 5215159.435 10 0 59772 66600.00000 0 -21837519.610 -13041782.423 2049704.440 10 0 59772 67500.00000 0 -21952338.224 -12951052.625 -1155517.946 10 0 59772 68400.00000 0 -21710609.414 -12672628.521 -4338300.220 10 0 59772 69300.00000 0 -21094556.212 -12258648.191 -7436814.494 10 0 59772 70200.00000 0 -20099169.103 -11764808.344 -10390815.640 10 0 59772 71100.00000 0 -18732594.805 -11247821.001 -13142817.560 10 0 59772 72000.00000 0 -17015987.688 -10762836.509 -15639219.003 10 0 59772 72900.00000 0 -14982827.945 -10360942.528 -17831356.294 10 0 59772 73800.00000 0 -12677733.186 -10086845.668 -19676461.672 10 0 59772 74700.00000 0 -10154811.701 -9976834.987 -21138507.636 10 0 59772 75600.00000 0 -7475625.001 -10057114.724 -22188920.116 10 0 59772 76500.00000 0 -4706843.940 -10342578.084 -22807145.805 10 0 59772 77400.00000 0 -1917695.862 -10836075.214 -22981061.915 10 0 59772 78300.00000 0 822690.925 -11528207.460 -22707219.829 10 0 59772 79200.00000 0 3447934.534 -12397657.614 -21990917.383 10 0 59772 80100.00000 0 5896928.138 -13412042.922 -20846098.023 10 0 59772 81000.00000 0 8116144.258 -14529255.254 -19295078.551 10 0 59772 81900.00000 0 10061618.572 -15699231.963 -17368110.670 10 0 59772 82800.00000 0 11700530.575 -16866082.383 -15102785.031 10 0 59772 83700.00000 0 13012315.652 -17970479.638 -12543289.727 10 0 59772 84600.00000 0 13989263.089 -18952215.961 -9739538.264 10 0 59772 85500.00000 0 14636576.380 -19752812.706 -6746184.888 10 0 59773 0.00000 0 14971895.231 -20318073.837 -3621547.750 10 0 59773 900.00000 0 15024301.687 -20600474.531 -426460.335 10 0 59773 1800.00000 0 14832854.238 -20561282.761 2776920.964 10 0 59773 2700.00000 0 14444714.672 -20172325.079 5926334.463 10 0 59773 3600.00000 0 13912948.389 -19417321.391 8960627.170 10 0 59773 4500.00000 0 13294093.055 -18292733.236 11820942.560 10 0 59773 5400.00000 0 12645599.519 -16808090.438 14451858.604 10 0 59773 6300.00000 0 12023253.685 -14985783.121 16802454.283 10 0 59773 7200.00000 0 11478688.179 -12860328.505 18827284.502 10 0 59773 8100.00000 0 11057088.201 -10477143.660 20487245.726 10 0 59773 9000.00000 0 10795187.221 -7890875.545 21750316.993 10 0 59773 9900.00000 0 10719635.619 -5163357.744 22592163.514 10 0 59773 10800.00000 0 10845809.488 -2361278.043 22996592.853 10 0 59773 11700.00000 0 11177108.461 446347.510 22955856.286 10 0 59773 12600.00000 0 11704771.103 3190790.879 22470790.647 10 0 59773 13500.00000 0 12408215.186 5806212.179 21550798.695 10 0 59773 14400.00000 0 13255888.644 8232138.030 20213668.569 10 0 59773 15300.00000 0 14206596.117 10415717.401 18485235.603 10 0 59773 16200.00000 0 15211246.472 12313663.321 16398892.308 10 0 59773 17100.00000 0 16214949.337 13893801.433 13994954.870 10 0 59773 18000.00000 0 17159374.055 15136162.115 11319897.121 10 0 59773 18900.00000 0 17985273.362 16033571.496 8425465.317 10 0 59773 19800.00000 0 18635066.783 16591717.025 5367689.417 10 0 59773 20700.00000 0 19055375.744 16828684.808 2205808.834 10 0 59773 21600.00000 0 19199403.796 16773987.844 -998867.534 10 0 59773 22500.00000 0 19029061.265 16467125.566 -4184145.563 10 0 59773 23400.00000 0 18516743.761 15955734.794 -7288151.637 10 0 59773 24300.00000 0 17646688.091 15293409.682 -10250536.437 10 0 59773 25200.00000 0 16415846.495 14537282.443 -13013653.034 10 0 59773 26100.00000 0 14834240.214 13745467.045 -15523685.669 10 0 59773 27000.00000 0 12924775.248 12974474.219 -17731706.578 10 0 59773 27900.00000 0 10722525.760 12276707.579 -19594639.427 10 0 59773 28800.00000 0 8273513.215 11698147.509 -21076109.704 10 0 59773 29700.00000 0 5633030.697 11276321.615 -22147164.693 10 0 59773 30600.00000 0 2863581.128 11038648.535 -22786848.278 10 0 59773 31500.00000 0 32514.753 11001226.068 -22982618.646 10 0 59773 32400.00000 0 -2790536.068 11168115.752 -22730600.194 10 0 59773 33300.00000 0 -5536317.919 11531154.808 -22035664.258 10 0 59773 34200.00000 0 -8138602.161 12070303.935 -20911336.690 10 0 59773 35100.00000 0 -10536705.062 12754516.464 -19379533.873 10 0 59773 36000.00000 0 -12677776.977 13543092.091 -17470132.213 10 0 59773 36900.00000 0 -14518764.947 14387457.563 -15220379.628 10 0 59773 37800.00000 0 -16027967.051 15233298.388 -12674160.867 10 0 59773 38700.00000 0 -17186114.179 16022950.513 -9881131.489 10 0 59773 39600.00000 0 -17986934.930 16697949.760 -6895738.267 10 0 59773 40500.00000 0 -18437181.529 17201630.106 -3776146.124 10 0 59773 41400.00000 0 -18556117.623 17481659.858 -583093.586 10 0 59773 42300.00000 0 -18374491.619 17492407.691 2621299.616 10 0 59773 43200.00000 0 -17933041.186 17197037.950 5774748.545 10 0 59773 44100.00000 0 -17280594.152 16569246.513 8816018.043 10 0 59773 45000.00000 0 -16471847.860 15594564.082 11686112.388 10 0 59773 45900.00000 0 -15564922.176 14271172.347 14329416.342 10 0 59773 46800.00000 0 -14618790.298 12610199.199 16694765.681 10 0 59773 47700.00000 0 -13690695.963 10635481.190 18736427.060 10 0 59773 48600.00000 0 -12833665.544 8382803.588 20414969.394 10 0 59773 49500.00000 0 -12094218.830 5898649.925 21698011.295 10 0 59773 50400.00000 0 -11510373.449 3238513.037 22560831.643 10 0 59773 51300.00000 0 -11110025.220 464837.204 22986833.122 10 0 59773 52200.00000 0 -10909770.829 -2355324.235 22967851.239 10 0 59773 53100.00000 0 -10914220.841 -5152840.031 22504303.966 10 0 59773 54000.00000 0 -11115830.789 -7859117.905 21605179.911 10 0 59773 54900.00000 0 -11495256.854 -10408700.739 20287865.502 10 0 59773 55800.00000 0 -12022221.181 -12741736.464 18577814.289 10 0 59773 56700.00000 0 -12656850.956 -14806221.218 16508064.089 10 0 59773 57600.00000 0 -13351435.956 -16559924.312 14118610.203 10 0 59773 58500.00000 0 -14052531.825 -17971916.236 11455645.519 10 0 59773 59400.00000 0 -14703321.902 -19023636.962 8570680.760 10 0 59773 60300.00000 0 -15246139.308 -19709460.412 5519560.435 10 0 59773 61200.00000 0 -15625043.866 -20036731.425 2361392.344 10 0 59773 62100.00000 0 -15788345.606 -20025273.416 -842589.613 10 0 59773 63000.00000 0 -15690968.260 -19706386.838 -4030207.998 10 0 59773 63900.00000 0 -15296552.269 -19121379.899 -7139546.996 10 0 59773 64800.00000 0 -14579207.289 -18319692.831 -10110156.795 10 0 59773 65700.00000 0 -13524838.466 -17356694.286 -12884233.406 10 0 59773 66600.00000 0 -12131988.471 -16291242.558 -15407750.338 10 0 59773 67500.00000 0 -10412157.450 -15183114.578 -17631519.374 10 0 59773 68400.00000 0 -8389585.028 -14090411.442 -19512158.994 10 0 59773 69300.00000 0 -6100501.244 -13067050.521 -21012950.654 10 0 59773 70200.00000 0 -3591875.785 -12160450.638 -22104565.475 10 0 59773 71100.00000 0 -919716.131 -11409508.757 -22765646.422 10 0 59773 72000.00000 0 1853015.411 -10842954.324 -22983233.907 10 0 59773 72900.00000 0 4658779.687 -10478151.364 -22753025.974 10 0 59773 73800.00000 0 7428034.903 -10320399.376 -22079467.493 10 0 59773 74700.00000 0 10091899.689 -10362762.828 -20975666.211 10 0 59773 75600.00000 0 12584793.903 -10586436.466 -19463137.088 10 0 59773 76500.00000 0 14846946.719 -10961630.694 -17571379.768 10 0 59773 77400.00000 0 16826667.093 -11448939.055 -15337297.555 10 0 59773 78300.00000 0 18482281.723 -12001129.093 -12804469.550 10 0 59773 79200.00000 0 19783659.777 -12565279.758 -10022290.664 10 0 59773 80100.00000 0 20713261.136 -13085173.639 -7044997.159 10 0 59773 81000.00000 0 21266665.373 -13503841.453 -3930597.678 10 0 59773 81900.00000 0 21452560.798 -13766149.792 -739731.703 10 0 59773 82800.00000 0 21292195.885 -13821321.512 2465521.019 10 0 59773 83700.00000 0 20818318.312 -13625281.280 5622855.841 10 0 59773 84600.00000 0 20073648.455 -13142726.577 8670958.800 10 0 59773 85500.00000 0 19108953.631 -12348836.498 11550698.053 10 0 59774 0.00000 0 17980806.058 -11230546.520 14206267.623 10 0 59774 900.00000 0 16749119.477 -9787335.195 16586262.836 10 0 59774 1800.00000 0 15474570.320 -8031491.721 18644663.683 10 0 59774 2700.00000 0 14216009.789 -5987851.555 20341712.933 10 0 59774 3600.00000 0 13027976.382 -3693012.715 21644669.756 10 0 59774 4500.00000 0 11958411.562 -1194064.843 22528427.288 10 0 59774 5400.00000 0 11046672.843 1453116.431 22975983.576 10 0 59774 6300.00000 0 10321925.804 4185939.926 22978758.263 10 0 59774 7200.00000 0 9801980.652 6937449.434 22536750.067 10 0 59774 8100.00000 0 9492620.510 9638858.571 21658532.801 10 0 59774 9000.00000 0 9387448.374 12222166.848 20361090.292 10 0 59774 9900.00000 0 9468258.505 14622750.403 18669493.228 10 0 59774 10800.00000 0 9705916.493 16781821.951 16616423.480 10 0 59774 11700.00000 0 10061711.389 18648659.546 14241554.035 10 0 59774 12600.00000 0 10489123.822 20182512.800 11590795.265 10 0 59774 13500.00000 0 10935936.675 21354108.187 8715420.628 10 0 59774 14400.00000 0 11346600.445 22146691.100 5671087.276 10 0 59774 15300.00000 0 11664754.442 22556561.108 2516769.351 10 0 59774 16200.00000 0 11835798.004 22593077.677 -686376.426 10 0 59774 17100.00000 0 11809403.252 22278135.474 -3876191.565 10 0 59774 18000.00000 0 11541862.836 21645130.496 -6990720.359 10 0 59774 18900.00000 0 10998172.494 20737459.673 -9969414.772 10 0 59774 19800.00000 0 10153758.929 19606616.411 -12754315.978 10 0 59774 20700.00000 0 8995778.163 18309961.722 -15291188.859 10 0 59774 21600.00000 0 7523927.295 16908264.606 -17530586.743 10 0 59774 22500.00000 0 5750733.043 15463115.267 -19428824.806 10 0 59774 23400.00000 0 3701302.499 14034320.446 -20948842.249 10 0 59774 24300.00000 0 1412544.285 12677391.028 -22060935.698 10 0 59774 25200.00000 0 -1068109.316 11441228.250 -22743348.734 10 0 59774 26100.00000 0 -3684427.257 10366106.615 -22982705.368 10 0 59774 27000.00000 0 -6373480.788 9482038.911 -22774278.430 10 0 59774 27900.00000 0 -9068033.623 8807592.557 -22122087.152 10 0 59774 28800.00000 0 -11699121.692 8349207.302 -21038821.632 10 0 59774 29700.00000 0 -14198714.798 8101042.855 -19545595.449 10 0 59774 30600.00000 0 -16502348.874 8045362.394 -17671531.096 10 0 59774 31500.00000 0 -18551618.484 8153435.016 -15453186.458 10 0 59774 32400.00000 0 -20296425.207 8386917.889 -12933833.823 10 0 59774 33300.00000 0 -21696887.762 8699658.378 -10162606.004 10 0 59774 34200.00000 0 -22724834.096 9039838.395 -7193527.043 10 0 59774 35100.00000 0 -23364813.570 9352368.640 -4084447.385 10 0 59774 36000.00000 0 -23614587.837 9581429.813 -895905.373 10 0 59774 36900.00000 0 -23485081.239 9673051.798 2310061.506 10 0 59774 37800.00000 0 -22999794.663 9577620.476 5471131.347 10 0 59774 38700.00000 0 -22193709.436 9252205.284 8525914.004 10 0 59774 39600.00000 0 -21111729.386 8662608.645 11415144.291 10 0 59774 40500.00000 0 -19806728.357 7785050.652 14082828.817 10 0 59774 41400.00000 0 -18337286.689 6607418.078 16477324.420 10 0 59774 42300.00000 0 -16765212.650 5130025.563 18552327.792 10 0 59774 43200.00000 0 -15152953.135 3365857.320 20267758.282 10 0 59774 44100.00000 0 -13561001.821 1340279.460 21590518.128 10 0 59774 45000.00000 0 -12045412.410 -909764.989 22495116.933 10 0 59774 45900.00000 0 -10655519.549 -3337045.192 22964149.960 10 0 59774 46800.00000 0 -9431960.933 -5885762.853 22988622.474 10 0 59774 47700.00000 0 -8405081.365 -8493633.399 22568115.014 10 0 59774 48600.00000 0 -7593783.595 -11094243.171 21710787.260 10 0 59774 49500.00000 0 -7004872.312 -13619586.620 20433220.701 10 0 59774 50400.00000 0 -6632917.561 -16002680.123 18760103.001 10 0 59774 51300.00000 0 -6460642.502 -18180145.891 16723759.518 10 0 59774 52200.00000 0 -6459819.017 -20094660.392 14363539.974 10 0 59774 53100.00000 0 -6592633.823 -21697166.853 11725070.901 10 0 59774 54000.00000 0 -6813468.178 -22948760.730 8859386.822 10 0 59774 54900.00000 0 -7071017.072 -23822170.054 5821955.575 10 0 59774 55800.00000 0 -7310659.324 -24302768.797 2671615.410 10 0 59774 56700.00000 0 -7476979.195 -24389080.477 -530556.613 10 0 59774 57600.00000 0 -7516333.265 -24092750.170 -3722423.667 10 0 59774 58500.00000 0 -7379353.950 -23437985.114 -6841993.072 10 0 59774 59400.00000 0 -7023283.111 -22460486.392 -9828621.694 10 0 59774 60300.00000 0 -6414035.908 -21205915.590 -12624199.119 10 0 59774 61200.00000 0 -5527906.018 -19727960.115 -15174284.945 10 0 59774 62100.00000 0 -4352838.158 -18086077.966 -17429177.358 10 0 59774 63000.00000 0 -2889211.877 -16343016.511 -19344891.406 10 0 59774 63900.00000 0 -1150101.224 -14562209.610 -20884026.957 10 0 59774 64800.00000 0 839003.047 -12805162.731 -22016508.687 10 0 59774 65700.00000 0 3040999.295 -11128936.312 -22720182.897 10 0 59774 66600.00000 0 5408476.857 -9583833.602 -22981258.794 10 0 59774 67500.00000 0 7885460.934 -8211390.531 -22794585.072 10 0 59774 68400.00000 0 10409528.557 -7042752.338 -22163755.896 10 0 59774 69300.00000 0 12914207.640 -6097505.308 -21101043.806 10 0 59774 70200.00000 0 15331559.041 -5383012.488 -19627160.614 10 0 59774 71100.00000 0 17594833.583 -4894280.795 -17770850.819 10 0 59774 72000.00000 0 19641092.487 -4614364.244 -15568325.574 10 0 59774 72900.00000 0 21413681.207 -4515285.020 -13062548.564 10 0 59774 73800.00000 0 22864452.792 -4559432.008 -10302388.206 10 0 59774 74700.00000 0 23955647.387 -4701375.976 -7341653.571 10 0 59774 75600.00000 0 24661349.349 -4890022.778 -4238033.745 10 0 59774 76500.00000 0 24968461.399 -5071011.641 -1051962.442 10 0 59774 77400.00000 0 24877155.900 -5189255.296 2154568.787 10 0 59774 78300.00000 0 24400785.728 -5191512.963 5319224.525 10 0 59774 79200.00000 0 23565260.129 -5028886.129 8380542.098 10 0 59774 80100.00000 0 22407913.589 -4659130.856 11279126.408 10 0 59774 81000.00000 0 20975916.973 -4048688.529 13958799.553 10 0 59774 81900.00000 0 19324299.096 -3174349.357 16367683.083 10 0 59774 82800.00000 0 17513662.833 -2024478.792 18459192.445 10 0 59774 83700.00000 0 15607691.963 -599755.673 20192925.420 10 0 59774 84600.00000 0 13670553.010 1086608.591 21535428.706 10 0 59774 85500.00000 0 11764300.039 3009178.773 22460829.325 99